Regional Weather Roundup
Issued by NWS

Home | Current Version | Previous Version | Graphics & Text | Print | Product List | Glossary On
Versions: 1 2 3 4 5 6 7 8 9 10 11 12 13 14 15 16 17 18 19 20 21 22 23 24 25 26 27 28 29 30 31 32 33 34 35 36 37 38 39 40 41 42 43 44 45 46 47 48 49 50
000
ASUS43 KMPX 191701
RWRMN
WEATHER ROUNDUP FOR MINNESOTA
NATIONAL WEATHER SERVICE TWIN CITIES/CHANHASSEN MN
1100 AM CST SUN FEB 19 2017


NOTE: "FAIR" INDICATES FEW OR NO CLOUDS BELOW 12,000 FEET WITH NO
SIGNIFICANT WEATHER AND/OR OBSTRUCTIONS TO VISIBILITY. N/A MEANS
CURRENT SKY AND/OR WEATHER CONDITIONS ARE NOT AVAILABLE.

MNZ060>063-068>070-191800-
   Twin Cities Metro

CITY           SKY/WX    TMP DP  RH WIND       PRES   REMARKS
TWIN CITIES    PTSUNNY   51  38  60 SE12      29.93F
ST PAUL        SUNNY     50  38  63 S7        29.95F
CRYSTAL        SUNNY     52  36  54 SE10      29.91F
BLAINE         MOSUNNY   54  37  54 SE9       29.93F
LAKEVILLE      SUNNY     46  39  76 SE8       29.93F
EDEN PRAIRIE   SUNNY     52  39  61 SE10      29.91F
SOUTH ST PAUL  SUNNY     47  36  65 SE6       29.94F
LAKE ELMO      FAIR      50  37  62 SE7       29.96F
$$
MNZ001>005-007-008-013>017-022>024-027-028-191800-
   Northwest Minnesota

CITY           SKY/WX    TMP DP  RH WIND       PRES   REMARKS
BEMIDJI        CLOUDY    38  32  79 E8        29.86F
HALLOCK        CLOUDY    37  32  81 E14       29.77F
ROSEAU         CLOUDY    37  32  81 E8        29.84F
WARROAD        PTSUNNY   36  32  87 E8        29.87F
THIEF RVR FALL CLOUDY    38  32  79 E15       29.80F
CROOKSTON      CLOUDY    41  36  81 SE15      29.76F
FOSSTON        MOSUNNY   41  34  75 SE13G18   29.80F
DETROIT LAKES  CLOUDY    43  37  81 SE16      29.80F
MOORHEAD       CLOUDY    45  39  81 SE13      29.75F
PARK RAPIDS    CLOUDY    45  33  63 SE13      29.84F
MAHNOMEN       FAIR      42  36  78 SE12      29.78F
$$
MNZ006-009>011-018-025>026-191800-
   North Central Minnesota

CITY           SKY/WX    TMP DP  RH WIND       PRES   REMARKS
BAUDETTE       CLOUDY    37  30  75 SE9       29.88F
FLAG ISLAND    CLOUDY    36  28  75 E6        29.89F
INTL FALLS     CLOUDY    37  30  75 SE7       29.93F
WASKISH        PTSUNNY   45  30  57 SE7       29.88F
BIG FORK       CLOUDY    43  30  61 SE3       29.92S
LONGVILLE      CLOUDY    46  32  57 SE5       29.89F
GRAND RAPIDS   MOSUNNY   45  30  55 S9        29.94S
CRANE LAKE     CLOUDY    37  30  75 CALM      29.97F
ORR            MOSUNNY   41  28  60 CALM      29.92S
COOK           MOSUNNY   41  30  65 SE5       29.95S
WALKER         FAIR      40  31  69 E5        29.87F
$$
MNZ012-019>021-037-191800-
   Northeast Minnesota

CITY           SKY/WX    TMP DP  RH WIND       PRES   REMARKS
DULUTH         SUNNY     41  32  70 SE9       29.97R
ELY            PTSUNNY   39  30  70 SE3       29.96S
HIBBING        CLOUDY    38  30  73 SE8       29.94F
EVELETH        CLOUDY    43  28  56 SE3       29.96S
DULUTH HARBOR    N/A     36  32  87 CALM      30.00S
TWO HARBORS    MOSUNNY   46  34  61 E5        29.97S
GRAND MARAIS     N/A     40  32  73 E5        30.03R
G MARAIS ARPRT MOSUNNY   41  25  52 S7        29.99S
$$
MNZ029>031-032-039>041-046>048-054>057-064-191800-
   West Central Minnesota

CITY           SKY/WX    TMP DP  RH WIND       PRES   REMARKS
FERGUS FALLS   CLOUDY    46  37  71 SE16G23   29.81F
WHEATON        CLOUDY    45  39  81 SE20      29.77F
MORRIS         MOSUNNY   48  41  76 SE21      29.78S
ALEXANDRIA     MOSUNNY   44  39  82 SE13      29.83F
ELBOW LAKE     FAIR      48  39  70 E13G18    29.78F
WADENA         CLOUDY    39  37  93 E12       29.83F
GLENWOOD       MOSUNNY   48  43  81 SE16      29.83F
APPLETON       MOSUNNY   48  39  71 SE9       29.79S
BENSON         MOSUNNY   52  37  58 S15G21    29.82F
ORTONVILLE     CLOUDY    43  37  81 SE12G18   29.77S
WILLMAR        FAIR      50  43  76 CALM      29.84S
$$
MNZ033>034-036-042>043-049>051-058-059-191800-
   Central Minnesota

CITY           SKY/WX    TMP DP  RH WIND       PRES   REMARKS
ST CLOUD       MOSUNNY   49  40  71 SE12      29.89F
SAUK CENTRE    FAIR      46  41  82 SE14      29.85F
PAYNESVILLE    CLOUDY    47  40  76 SE13      29.86F
AITKIN         MOSUNNY   50  30  46 E9        29.90F
PINE RIVER     MOSUNNY   43  34  70 SE9       29.92F
BRAINERD       MOSUNNY   44  35  70 SE9       29.90F
STAPLES        CLOUDY    43  37  81 SE6       29.86F
LONG PRAIRIE   FAIR      43  39  87 E8        29.87F
LITTLE FALLS   MOSUNNY   45  37  76 E7        29.89F
LITCHFIELD     MOSUNNY   50  43  76 SE13      29.88S
BUFFALO        SUNNY     52  39  62 SE9       29.91S
MAPLE LAKE     CLOUDY    51  43  72 SE7       29.90F
HUTCHINSON     CLOUDY    49  43  80 SE12      29.88F
$$
MNZ037-044-045-052-053-191800-
   East Central Minnesota

CITY           SKY/WX    TMP DP  RH WIND       PRES   REMARKS
PRINCETON      MOSUNNY   54  37  54 E6        29.91F
MORA           CLOUDY    43  36  75 E7        29.96F
CAMBRIDGE      MOSUNNY   52  37  58 E7        29.91F
RUSH CITY      CLOUDY    50  39  66 SE5       29.95F
MOOSE LAKE     MOSUNNY   46  30  53 CALM      29.93F
HINCKLEY       FAIR      46  37  71 E6        29.95F
CLOQUET        SUNNY     43  28  56 SE8       29.96S
MCGREGOR       CLOUDY    46  32  57 SE10      29.93S
$$
MNZ071>073-080-081-089-090-097-098-191800-
   Southwest Minnesota

CITY           SKY/WX    TMP DP  RH WIND       PRES   REMARKS
MONTEVIDEO     CLOUDY    52  39  62 S13G20    29.81S
GRANITE FALLS  CLOUDY    51  42  72 SE14      29.82F
CANBY          MOSUNNY   55  43  63 SE9       29.78S
MARSHALL       CLOUDY    53  43  68 S15       29.79F
REDWOOD FALLS  CLOUDY    50  40  68 SE17      29.82F
OLIVIA         CLOUDY    50  43  76 SE15G21   29.83S
PIPESTONE      CLOUDY    52  39  62 S13       29.79S
WINDOM         CLOUDY    54  41  62 S14       29.84S
WORTHINGTON    SUNNY     50  43  77 S18       29.82F
JACKSON        SUNNY     50  41  71 S10       29.86S
TRACY          CLOUDY    54  44  69 S14G22    29.80F
SLAYTON        MOSUNNY   51  46  81 S14       29.82S
$$
MNZ065>067-074>077-082>085-091>093-191800-
   South Central Minnesota

CITY           SKY/WX    TMP DP  RH WIND       PRES   REMARKS
MANKATO          N/A     49  41  74 SE14      29.89F
NEW ULM        SUNNY     48  39  71 SE16      29.86S
ST JAMES       SUNNY     48  43  81 SE12      29.87F
FAIRMONT       CLOUDY    47  41  80 S14       29.88F
GLENCOE        SUNNY     51  45  82 E12       29.89F
FARIBAULT      SUNNY     52  43  71 SE13      29.93F
OWATONNA       SUNNY     52  43  71 SE14      29.93F
WASECA         SUNNY     50  43  76 SE13      29.92F
ALBERT LEA     CLOUDY    48  43  81 S14       29.93F
$$
MNZ078>079-086>088-094>096-191800-
   Southeast Minnesota

CITY           SKY/WX    TMP DP  RH WIND       PRES   REMARKS
ROCHESTER      CLOUDY    48  42  80 S13       29.98R
RED WING       SUNNY     48  37  66 SE9       29.96F
STANTON        SUNNY     52  42  68 S13       29.93S
DODGE CENTER   SUNNY     46  43  87 SE12      29.95F
WINONA         PTSUNNY   46  36  66 SE7       30.01S
AUSTIN         SUNNY     46  43  87 SE7       29.95F
PRESTON        MOSUNNY   47  38  71 S8        29.99F
$$
ABBREVIATIONS USED IN REMARKS
   TC - TEMPERATURES IN CELSIUS
  WCI - WIND CHILL INDEX
   HX - HEAT INDEX
  VSB - VISIBILITY
$$




USA.gov is the U.S. government's official web portal to all federal, state and local government web resources and services.